Wind_Speed
11 9 8 7 6 5 5 6 7 8 8 9 10 11 12 14 15 16 16 17 17 18 18 19 19 19 19 20 21 20 20 20 20 20 21 22 22 23 23 24 26 28 29 30 28 27 28 30 33 36 37 37 38 41 43 42 38 35 32 31 29 27 26 21 16 13 14 19 19 18 21 22 21 22 26 30 28 20 19 25 26 25 24 23 21
11 9 8 7 6 5 5 6 7 8 9 10 11 12 14 16 17 18 19 20 19 20 20 21 21 21 21 21 21 21 21 22 22 22 22 23 23 23 24 25 26 27 29 32 32 29 28 29 32 34 35 35 34 36 39 42 40 37 34 32 30 28 27 25 22 17 12 14 16 18 20 21 21 22 27 32 29 22 22 26 23 21 22 22 22
11 9 8 7 6 5 6 7 8 9 10 11 13 14 16 18 19 20 21 22 22 23 23 22 22 23 23 23 22 23 23 23 23 23 24 24 24 25 25 25 26 26 28 30 32 33 31 30 31 32 32 33 34 34 35 38 39 38 36 35 32 28 27 26 27 21 15 18 18 18 20 20 20 22 25 29 28 24 23 23 19 17 18 19 21
10 8 7 6 5 6 6 7 8 10 11 12 15 17 18 19 20 21 21 22 23 25 25 25 25 25 25 24 24 24 25 24 25 25 25 26 26 26 26 27 27 27 28 29 31 34 34 32 31 31 32 32 33 35 34 35 39 38 37 37 35 30 28 28 28 23 18 21 20 19 21 20 21 23 25 25 24 22 22 20 16 15 16 15 19
9 7 6 6 6 6 7 8 9 10 12 14 17 19 19 20 21 22 22 23 24 25 26 26 27 26 26 26 26 26 26 26 27 27 27 26 26 27 28 28 29 28 29 30 30 32 35 34 32 31 32 31 33 37 36 36 39 39 38 38 34 29 28 28 28 24 20 21 20 19 20 20 20 22 25 26 23 20 19 18 16 16 16 15 18
9 7 6 6 6 7 7 8 9 11 14 16 18 19 20 21 22 22 23 24 25 27 28 28 27 26 26 27 27 27 27 28 28 28 28 27 27 27 28 29 30 30 30 31 31 32 33 34 34 33 33 32 34 38 39 38 39 38 38 38 33 28 26 27 28 28 24 22 21 21 21 21 22 21 23 27 26 23 20 18 15 15 16 17 19
8 6 6 6 6 7 7 8 10 12 14 16 18 19 20 21 22 23 24 25 27 30 31 30 29 28 28 28 28 29 29 29 30 29 29 28 28 28 28 29 30 31 32 32 32 32 33 34 35 34 34 34 35 37 40 40 37 37 38 39 37 29 23 25 30 29 25 22 21 22 22 22 23 22 23 25 24 23 23 22 18 16 16 19 21
7 6 6 6 6 7 7 8 10 13 14 16 17 19 20 22 23 24 25 26 28 30 30 29 28 29 29 29 29 29 30 30 30 30 29 28 29 29 29 29 30 31 32 33 33 33 33 34 36 35 35 35 35 36 40 40 35 34 37 39 40 33 24 24 27 26 24 22 20 21 21 21 21 22 23 24 23 21 22 23 21 19 18 18 19
7 6 5 6 6 6 7 9 11 13 15 16 17 19 21 22 23 24 25 26 28 29 29 29 29 29 30 30 31 30 31 32 31 30 29 28 27 28 29 29 30 30 31 33 34 34 33 33 35 36 36 36 35 35 39 41 37 34 35 38 39 34 27 26 26 23 23 22 19 20 21 21 22 23 24 26 25 24 24 23 20 20 20 17 16
6 5 5 5 5 7 8 9 12 13 13 15 18 20 22 23 24 25 26 26 27 27 29 30 30 30 31 31 31 31 32 32 32 32 32 30 28 27 27 28 29 30 31 32 33 34 35 34 33 36 38 39 38 37 38 41 41 38 38 40 40 35 29 28 26 23 24 22 20 21 20 19 23 26 27 27 26 25 26 25 22 21 21 18 14
5 5 4 4 5 7 8 10 12 12 13 16 18 20 22 23 24 25 26 26 26 28 29 30 30 30 31 31 31 32 33 33 33 34 35 35 33 30 28 28 28 30 31 32 33 33 34 34 33 34 37 40 40 39 38 40 43 44 44 43 42 38 32 29 26 25 25 22 21 22 21 21 24 26 25 25 25 25 26 26 24 24 23 19 15
5 4 4 5 6 7 8 10 11 13 14 16 18 20 22 23 24 25 25 26 27 29 30 29 29 29 30 31 32 33 34 34 34 35 36 36 36 35 32 31 30 30 31 32 33 32 32 33 33 33 34 38 39 39 38 40 44 47 47 47 46 42 36 31 28 27 26 23 21 22 22 22 24 25 26 26 26 26 25 24 24 24 23 20 17
4 4 4 5 6 7 8 10 12 13 14 16 18 20 22 23 24 24 25 26 27 28 29 29 30 30 30 31 33 34 34 35 36 36 37 37 38 38 36 34 33 33 32 31 31 32 32 32 32 32 33 35 37 37 37 40 45 47 46 48 50 46 40 35 32 30 28 25 24 25 25 25 28 33 36 33 29 27 26 25 25 24 21 18 17
4 4 4 5 6 7 9 11 13 13 14 16 19 21 22 23 24 24 25 26 26 28 29 29 29 29 30 31 33 33 34 34 35 37 38 38 39 40 39 36 36 36 35 34 32 32 33 32 31 32 32 34 35 37 37 38 42 45 44 45 49 49 44 38 34 32 30 28 29 31 32 32 36 40 41 36 32 31 30 28 28 26 21 18 17
4 4 4 5 6 8 10 11 12 13 15 17 20 21 23 25 25 26 27 27 27 27 28 28 28 29 30 31 33 34 33 33 34 36 38 38 38 40 40 38 38 38 37 36 35 33 32 33 33 32 32 33 34 36 37 34 35 40 40 39 43 45 42 37 35 33 31 31 33 35 34 34 36 37 37 36 32 32 34 33 32 30 24 19 17
4 4 4 5 7 9 11 12 13 14 17 19 21 22 25 26 28 29 29 28 27 26 27 27 28 30 30 31 33 35 35 34 35 36 37 37 38 40 40 38 38 39 38 37 36 35 34 34 34 33 33 33 34 36 38 34 31 33 31 27 32 36 35 33 33 32 31 30 31 32 32 32 33 33 36 37 34 34 35 31 30 30 24 17 15
4 4 4 6 7 9 11 12 14 16 18 20 22 23 25 27 29 30 29 28 27 27 28 29 29 30 31 32 34 35 36 35 36 37 38 38 39 39 37 36 36 38 38 37 35 35 36 36 34 33 33 34 34 35 37 35 30 28 27 24 27 29 27 26 28 29 28 28 29 29 29 30 30 30 34 36 36 38 37 31 29 29 23 15 13
4 4 5 6 8 10 11 13 15 16 18 20 22 23 26 28 30 29 28 29 29 29 30 30 30 31 31 33 33 35 36 35 36 38 39 39 40 39 35 33 35 35 36 37 35 35 36 38 37 35 34 35 35 34 37 37 30 27 30 31 31 29 26 24 25 25 25 25 24 23 23 25 26 27 31 33 34 38 40 36 34 31 23 15 14
4 4 5 6 8 10 12 13 14 16 19 21 22 23 26 30 30 29 28 29 29 29 29 30 31 31 31 32 33 33 35 35 37 39 41 41 41 40 35 32 33 34 34 34 34 33 34 37 39 38 35 33 32 34 37 37 31 29 34 36 33 31 30 28 28 28 27 25 24 22 20 21 23 25 28 30 32 34 36 38 37 33 24 18 18
3 4 5 6 7 9 11 13 14 16 19 21 22 23 26 29 30 29 28 29 29 29 29 30 31 30 30 30 31 31 32 33 35 38 41 41 41 40 36 32 32 33 32 31 31 31 33 34 36 38 38 33 29 32 37 37 32 32 37 38 36 34 33 30 29 31 30 29 27 25 24 25 26 28 30 30 31 29 28 32 33 28 22 20 19
3 4 5 6 7 9 11 13 14 16 18 20 22 23 26 28 28 28 29 29 29 30 31 30 29 28 28 29 30 29 29 30 31 32 35 39 40 41 40 36 33 32 31 30 29 29 31 32 31 33 37 35 29 31 35 36 33 35 39 41 39 38 36 33 31 33 33 32 31 28 29 29 29 29 29 27 25 24 23 26 26 20 17 18 17
2 3 5 6 7 9 10 12 14 15 17 20 21 22 24 25 26 28 29 29 29 30 30 28 26 26 27 28 28 26 27 28 27 28 31 34 37 40 41 39 35 32 29 29 29 28 29 30 27 27 33 34 29 29 32 34 34 34 38 40 39 38 38 37 36 36 36 36 35 33 32 31 28 26 26 25 24 24 24 25 23 18 15 14 14
2 3 5 6 7 9 10 12 13 15 17 19 20 22 24 24 25 27 28 28 29 30 29 27 25 25 26 27 26 25 25 25 25 25 28 32 35 39 41 40 38 35 30 27 28 27 27 26 24 24 29 30 27 27 31 34 34 34 37 39 38 38 38 38 38 37 37 37 36 34 32 31 29 28 29 28 27 27 26 25 24 22 19 17 15
2 4 5 6 7 9 9 11 13 15 17 18 19 21 22 23 24 26 27 27 27 29 29 28 25 23 24 26 26 24 23 22 23 23 24 27 32 36 39 40 40 38 32 27 25 26 25 24 23 24 26 26 26 27 31 34 35 35 36 38 38 38 39 38 37 36 36 33 31 30 30 30 31 30 28 27 28 29 27 24 23 22 21 21 20
2 4 6 7 7 8 9 10 12 14 16 17 18 20 20 20 22 25 26 26 26 27 28 27 25 24 24 25 25 24 20 19 21 21 20 23 28 33 38 39 39 39 34 26 24 25 25 23 24 25 25 25 26 28 31 34 36 36 37 39 40 39 39 38 36 36 35 31 28 28 28 28 30 30 29 30 32 31 29 27 25 24 23 22 22
2 4 6 7 7 8 9 10 12 14 15 16 17 19 20 19 20 23 24 25 25 25 26 24 23 23 23 24 24 22 19 17 18 17 16 17 21 26 31 33 34 34 29 22 20 22 22 23 26 27 26 27 29 32 33 33 34 37 39 40 41 41 40 40 38 38 37 34 31 29 28 28 30 32 32 32 31 30 30 29 26 24 23 22 21
3 5 6 7 7 8 9 10 12 13 14 15 17 19 20 18 18 20 21 22 23 24 24 24 22 21 21 22 23 22 18 15 15 15 13 9 11 17 22 26 28 27 23 20 20 22 23 25 27 29 28 29 31 34 35 35 36 37 37 36 38 39 39 40 42 42 41 38 34 32 32 32 31 29 28 27 26 25 27 27 24 22 20 20 20
4 5 6 7 8 9 9 10 11 12 14 14 16 18 20 19 18 18 19 21 23 24 24 24 24 23 22 22 23 22 17 13 14 16 14 6 7 16 24 28 28 27 26 24 25 26 27 29 30 31 32 32 31 32 34 34 34 35 34 33 34 34 35 38 40 41 41 41 39 36 34 32 28 25 24 24 24 23 22 22 21 20 19 18 18
3 5 5 6 8 9 9 10 11 12 13 13 15 17 19 20 20 19 20 22 24 26 27 26 26 26 24 20 19 19 17 14 14 16 13 8 6 13 24 30 31 31 31 30 31 30 28 28 29 29 31 32 30 29 31 31 30 29 31 33 35 35 37 40 40 38 40 42 42 39 34 29 25 23 23 24 23 21 20 21 21 20 18 18 17
3 4 5 6 8 8 9 9 11 11 11 12 15 17 18 19 20 20 21 22 23 25 28 29 28 28 25 19 16 17 15 13 13 13 10 8 8 10 21 30 32 33 34 35 35 31 25 23 23 23 25 28 28 26 28 31 32 31 31 33 36 38 38 38 38 39 41 41 40 38 34 28 24 24 25 25 23 21 20 20 19 18 18 18 17
4 4 5 5 6 7 8 9 10 11 11 11 13 16 18 19 20 20 21 22 22 23 27 30 30 29 26 22 20 19 16 11 8 7 5 6 7 9 17 27 31 34 37 36 31 25 23 22 21 20 21 23 23 24 27 31 34 34 32 32 32 34 35 35 37 39 39 38 37 35 30 25 24 27 29 27 24 22 20 19 18 17 17 18 17
4 5 5 4 4 6 7 8 9 10 11 11 12 14 17 19 20 21 22 23 22 22 24 30 31 29 27 25 24 24 22 17 12 7 3 5 9 13 19 26 29 31 34 33 26 20 20 21 20 20 20 19 22 27 32 34 35 33 31 31 30 30 32 35 37 39 38 38 38 34 27 24 28 30 29 26 24 22 19 18 18 18 18 18 17
4 4 4 4 5 6 7 8 9 10 11 10 10 12 16 17 19 21 23 23 23 23 24 27 30 30 29 27 26 26 24 21 18 16 13 13 16 20 23 24 23 22 23 23 20 17 17 20 21 23 22 23 27 32 32 33 33 31 30 33 34 31 32 35 38 37 35 35 37 35 30 30 33 32 28 24 22 21 20 19 18 18 18 17 16
4 4 4 4 5 6 7 8 9 10 11 11 10 11 13 15 17 19 21 22 23 24 25 26 28 30 30 29 28 27 24 23 21 19 18 17 18 20 21 20 18 17 17 17 18 18 19 21 23 25 25 26 31 33 31 31 34 34 33 35 35 34 35 36 36 35 34 34 36 35 32 32 34 31 25 21 20 20 20 19 18 18 18 17 15
4 3 3 3 4 6 7 8 9 10 11 11 10 9 10 13 15 17 18 20 20 21 23 25 27 28 29 29 29 28 25 24 22 20 18 17 16 17 18 17 15 15 16 16 18 20 21 22 24 27 27 27 30 33 33 33 35 36 36 36 35 35 36 36 35 34 35 36 35 34 32 31 29 24 21 20 21 21 20 18 18 18 17 16 15
4 2 2 2 4 5 6 7 8 9 10 10 10 9 9 10 12 14 16 18 19 20 21 23 25 26 28 29 28 28 27 26 24 23 21 19 18 19 18 16 15 16 16 16 18 20 21 23 25 27 29 29 29 32 35 35 36 37 37 35 35 35 35 35 35 35 35 35 34 32 30 27 25 22 21 21 21 20 19 19 18 17 17 16 15
4 2 2 3 4 5 5 6 7 8 8 8 9 9 9 8 9 11 13 16 19 20 20 22 24 26 27 28 27 26 27 27 27 27 25 24 23 22 20 18 17 17 16 16 19 20 20 22 24 27 29 31 31 33 35 36 38 38 36 33 33 34 34 34 35 36 36 35 33 29 27 26 26 25 23 21 20 20 20 19 19 18 18 17 15
4 3 1 2 5 6 5 6 7 8 8 7 8 9 9 9 9 9 10 12 16 18 19 21 22 23 24 26 26 25 26 29 28 27 26 25 23 22 21 20 20 20 19 19 21 22 22 23 25 26 28 30 32 34 37 38 39 39 37 34 34 34 34 34 35 36 37 35 29 26 26 26 25 23 22 22 22 21 19 19 20 21 19 16 13
5 5 3 2 5 7 7 6 6 7 8 7 8 8 9 10 10 9 9 10 12 15 17 18 19 20 22 25 26 25 26 27 25 22 23 24 22 21 22 23 23 22 21 21 24 26 27 27 27 26 27 29 32 36 39 42 41 40 38 38 37 36 36 36 35 36 35 31 26 24 23 22 20 20 23 24 24 22 21 20 19 18 16 13 12
4 4 3 4 6 7 8 7 6 6 7 8 8 8 8 9 9 9 9 9 9 12 15 15 15 18 23 27 27 24 24 23 21 20 22 23 23 22 23 24 22 22 21 22 23 25 26 27 29 29 29 30 33 36 39 40 39 38 38 38 38 37 37 36 35 34 31 29 26 25 24 21 20 20 22 23 23 22 21 19 16 15 15 14 13
4 2 2 5 7 8 8 7 5 5 6 7 7 8 8 8 9 9 10 9 8 9 11 12 14 17 22 25 26 24 22 22 22 22 23 24 24 24 25 24 22 22 23 24 24 24 23 24 28 31 32 33 34 36 37 36 36 37 37 37 37 37 36 35 33 31 30 28 28 27 25 21 19 19 21 21 21 20 18 17 16 16 15 14 13
4 2 2 5 7 7 7 6 5 4 4 5 6 7 7 8 8 9 10 10 9 8 8 9 12 15 18 22 24 24 22 21 21 23 24 25 25 25 26 25 25 25 25 25 25 25 26 26 28 29 31 31 32 34 34 35 36 37 36 36 36 35 33 31 30 29 29 29 28 27 24 21 20 21 23 21 19 17 17 17 16 16 15 13 12
2 2 3 5 6 6 6 6 5 3 3 4 5 5 6 7 8 9 9 9 9 8 7 7 8 10 13 17 20 21 20 20 20 21 22 23 24 26 26 26 26 27 27 27 27 27 28 28 28 28 29 29 30 31 32 33 34 35 35 35 34 33 31 29 29 29 29 29 27 25 23 22 22 22 21 19 17 17 17 17 16 15 14 13 12
1 2 4 4 5 4 4 6 6 3 3 3 3 3 5 6 7 8 9 9 9 8 7 6 5 5 7 10 13 15 16 17 18 20 22 22 23 24 25 24 24 25 27 28 28 27 27 28 28 27 28 28 28 28 28 29 30 31 32 33 32 31 30 30 29 28 29 29 27 24 22 22 21 19 18 17 17 17 16 16 15 15 13 13 12
3 3 3 3 3 4 4 6 5 2 2 3 2 2 4 6 8 9 9 9 9 8 7 6 5 5 5 6 7 8 11 13 15 17 19 20 21 21 22 22 22 23 24 25 26 26 26 26 26 26 26 26 26 26 26 26 26 26 27 28 29 29 28 27 27 26 27 28 26 23 21 20 19 17 16 16 16 16 16 15 15 14 13 12 12
3 3 2 2 2 3 4 5 3 1 1 1 1 2 4 6 7 8 8 8 8 8 8 7 6 5 5 5 5 5 6 8 10 11 13 16 18 18 19 19 20 21 22 23 23 23 23 24 24 24 24 24 24 23 23 24 24 24 24 25 26 26 25 25 25 24 26 27 26 23 20 19 18 17 17 16 15 15 16 15 14 13 13 12 12
6 5 4 2 1 2 2 2 2 1 1 1 2 3 4 5 5 6 6 6 6 7 8 8 7 6 6 6 5 5 5 6 6 7 9 11 13 14 15 15 16 17 19 19 19 19 20 20 21 22 22 21 21 21 21 21 21 21 21 22 22 23 23 23 23 24 25 26 24 21 20 20 19 18 17 16 16 16 16 14 13 13 13 12 12
9 8 7 6 5 3 3 2 1 1 1 2 2 2 3 3 4 5 5 6 6 7 8 8 7 7 7 6 6 5 5 5 5 6 7 8 9 11 13 13 13 14 15 15 15 15 16 17 18 19 19 20 20 20 19 19 18 17 17 17 18 19 21 22 23 24 25 25 23 21 20 20 18 17 16 16 16 16 15 14 13 13 12 12 12
12 11 10 9 8 7 6 4 3 2 3 3 2 2 2 3 3 5 5 6 7 8 8 8 7 7 6 5 5 5 5 5 5 5 6 6 7 9 11 12 12 12 12 13 14 14 15 15 15 16 16 16 17 17 17 17 17 16 16 15 15 16 19 21 23 23 24 26 25 21 18 18 18 17 16 16 16 15 14 14 13 13 12 12 11
13 13 12 11 11 10 9 7 6 6 5 3 3 3 2 2 3 4 5 5 6 7 7 7 7 7 7 6 5 5 5 5 5 5 5 5 5 6 8 11 11 10 11 12 13 14 14 15 15 15 15 15 14 15 15 15 15 16 15 14 14 15 19 21 22 21 22 25 23 19 17 18 18 17 16 16 15 14 14 14 13 12 12 11 11
14 13 13 13 13 12 11 11 10 9 8 7 5 4 4 3 3 4 4 4 5 6 6 6 7 7 7 6 5 5 5 5 4 4 4 4 4 5 6 7 8 8 10 11 13 13 14 14 14 15 15 15 15 15 14 14 15 15 15 15 15 16 19 21 20 20 21 22 19 16 17 19 19 17 16 15 14 14 14 13 13 12 12 11 10
Wind_Direction
177 179 183 186 192 202 217 233 239 244 249 251 256 263 272 277 277 278 278 277 277 277 276 274 272 271 269 269 267 265 262 260 258 256 256 256 254 252 252 249 247 245 240 239 241 241 237 234 232 228 223 219 218 219 220 222 224 225 230 239 237 226 220 219 229 229 200 196 195 169 164 173 174 179 180 174 170 165 175 186 182 177 178 180 182
183 184 186 191 200 213 231 246 249 251 254 257 262 270 276 277 277 277 276 276 277 276 276 275 273 270 269 268 266 265 262 259 258 256 254 256 256 253 250 248 248 248 245 241 239 240 240 238 237 234 230 225 220 217 217 218 221 224 228 238 239 229 221 217 222 222 188 180 183 161 162 171 165 171 181 177 169 166 174 175 168 170 177 180 180
186 186 190 197 208 225 244 253 257 259 260 263 269 276 279 278 278 278 276 277 277 276 275 275 273 271 269 267 265 263 262 259 257 256 254 253 254 255 253 249 247 246 246 245 241 239 239 240 239 236 233 232 226 219 215 215 218 221 224 232 236 230 224 220 222 218 182 169 177 165 165 169 160 165 177 176 170 165 165 164 159 163 169 175 181
190 193 198 207 220 239 254 260 263 266 266 271 279 282 281 280 280 279 277 277 276 274 273 273 273 272 269 267 265 263 261 259 257 255 253 252 251 252 254 252 249 246 244 245 245 242 239 239 240 237 232 231 229 224 217 211 213 216 219 227 231 225 220 219 222 219 191 180 185 173 166 165 158 160 163 163 164 161 157 157 158 157 154 161 178
193 201 208 218 236 249 257 265 269 272 276 280 284 285 284 283 283 281 278 276 274 274 273 272 272 271 268 267 265 263 262 259 258 256 253 252 251 251 252 251 250 248 245 244 246 245 241 239 240 240 235 230 228 227 222 213 211 213 217 223 226 221 214 213 217 215 193 181 181 170 163 159 153 157 160 157 155 154 154 156 155 152 148 157 175
191 200 212 227 244 253 261 270 276 281 285 287 286 286 286 285 284 283 281 278 276 275 274 273 271 268 267 267 264 263 262 260 258 257 253 252 251 250 249 249 248 247 247 244 243 243 243 240 239 239 237 234 229 227 226 221 215 212 213 217 221 223 216 209 213 213 196 178 168 160 159 157 151 156 165 163 158 157 157 156 155 155 159 165 172
187 199 214 232 247 257 266 275 281 286 288 288 288 288 287 287 287 285 284 281 279 277 275 273 270 269 268 267 265 263 262 260 258 256 253 250 249 248 247 247 246 245 245 243 241 241 242 242 239 238 238 236 232 227 226 226 219 212 211 213 216 222 218 210 213 212 196 177 166 161 160 160 157 159 166 166 163 163 161 159 160 163 166 170 171
189 202 216 234 249 263 273 280 286 289 289 289 290 291 290 289 288 287 285 283 281 279 277 274 271 270 269 266 265 263 261 260 257 255 252 249 247 246 245 245 245 244 243 241 238 238 240 241 239 238 237 237 235 229 225 224 221 215 211 209 212 218 215 212 217 212 195 179 170 164 160 159 160 159 162 165 165 169 171 166 165 165 164 168 173
191 204 219 236 253 269 279 286 289 290 291 292 293 293 292 291 289 288 286 284 283 281 278 276 273 271 270 267 266 263 261 259 255 252 250 247 246 245 244 243 244 244 243 241 238 237 238 239 238 237 237 236 236 233 227 223 220 216 210 204 209 216 213 212 217 208 191 181 168 162 162 163 165 163 166 174 176 175 176 171 164 162 159 160 170
192 207 225 243 262 275 282 288 290 292 293 294 295 296 294 293 292 291 289 286 284 282 280 278 275 272 270 269 266 263 260 257 254 251 248 246 245 245 244 243 242 242 243 241 238 235 235 237 237 236 236 237 237 236 232 227 223 220 213 207 209 214 210 207 207 198 189 182 167 163 166 167 170 171 174 181 180 174 172 171 165 160 158 156 162
194 213 236 257 270 278 286 291 292 294 295 295 297 299 298 297 296 294 292 290 287 285 283 280 277 273 271 269 265 262 259 257 255 253 250 247 245 244 244 244 242 241 241 240 238 235 233 235 235 235 235 235 236 236 233 230 227 224 221 213 210 211 207 201 199 197 197 190 171 167 171 171 175 179 178 178 178 175 172 172 167 162 162 163 164
203 223 248 266 273 280 290 295 295 295 296 298 302 303 302 302 301 297 295 293 291 289 286 282 279 276 273 269 266 263 261 259 257 255 252 250 246 243 243 244 244 242 241 240 238 235 233 232 233 233 232 232 234 234 231 228 225 223 221 216 212 211 210 206 199 194 193 187 174 174 181 176 172 177 180 178 177 176 174 174 171 169 172 174 171
211 233 257 268 276 288 295 297 297 298 300 303 307 308 308 307 305 302 298 296 293 290 286 282 280 278 274 271 267 264 262 261 259 257 254 252 248 243 241 241 242 243 242 243 241 236 232 232 231 230 229 229 230 230 228 225 223 221 220 216 213 212 214 213 208 200 192 184 177 179 184 181 181 188 190 184 175 171 173 177 176 174 175 178 173
221 241 265 274 280 294 298 299 301 301 302 305 309 312 313 312 308 304 300 297 293 289 286 282 279 276 273 271 269 266 264 261 260 258 255 252 249 244 240 239 241 241 241 243 245 240 233 231 231 230 228 226 226 225 225 223 221 220 219 213 209 209 210 210 211 211 208 202 197 196 196 196 198 200 197 189 179 175 175 176 173 168 165 166 167
235 250 270 278 287 299 300 300 303 302 303 306 310 314 316 316 313 308 302 297 292 288 285 280 277 274 272 271 269 268 265 262 259 258 256 253 250 245 240 238 239 240 239 240 243 244 240 233 231 231 229 225 223 222 221 219 214 213 213 209 205 206 208 208 211 215 215 213 211 208 204 203 204 201 195 189 184 182 179 176 172 166 159 154 153
257 268 273 281 294 300 299 301 303 303 305 308 310 315 318 319 317 311 303 296 291 288 285 280 277 275 273 272 271 270 267 264 260 257 255 252 249 243 238 236 237 238 237 237 239 242 242 237 232 231 231 227 223 221 220 218 209 204 202 197 194 196 200 203 207 210 210 211 212 209 205 205 205 201 195 190 187 184 178 170 167 165 157 143 143
273 280 279 285 296 299 299 302 303 303 307 310 313 317 319 318 316 311 305 300 296 293 290 286 282 279 276 274 273 272 270 266 261 257 253 249 245 240 235 234 235 236 235 235 236 237 238 237 233 231 231 229 225 221 217 213 204 192 184 179 179 183 186 190 195 199 202 206 207 205 206 207 206 202 196 193 193 189 177 163 163 166 156 141 151
284 291 288 289 296 300 300 302 304 305 308 314 317 318 318 318 317 314 308 304 301 298 295 291 286 281 278 276 274 272 270 267 262 257 251 246 241 236 233 233 234 234 234 234 234 234 235 236 236 232 231 230 226 219 212 206 197 185 180 176 172 173 176 177 180 183 186 191 193 194 197 199 197 195 194 194 195 192 184 175 171 167 157 151 161
300 299 293 291 295 302 303 303 305 307 310 316 319 318 318 319 319 316 312 308 305 301 298 295 290 285 281 278 276 273 271 269 265 258 250 244 239 234 232 233 232 232 232 231 230 231 232 234 236 232 231 232 225 215 210 204 194 189 186 178 170 171 174 175 174 173 173 175 177 177 176 177 178 180 182 185 185 186 187 183 174 165 160 160 160
310 300 291 292 297 305 309 308 309 311 313 317 319 318 318 319 319 318 316 312 307 303 301 298 294 290 285 283 280 276 274 273 269 260 250 244 239 233 231 231 229 229 230 228 227 228 227 229 230 226 227 232 224 211 208 203 196 193 191 183 178 176 174 171 170 169 166 166 165 162 159 157 160 164 167 170 171 173 179 180 172 165 165 162 163
303 296 295 299 306 315 318 315 314 314 315 318 319 318 317 319 320 320 317 314 310 308 307 304 298 293 290 288 286 282 277 275 273 263 251 244 240 234 232 232 229 225 226 225 225 226 224 225 226 221 219 222 216 206 205 204 199 197 195 193 190 184 175 167 166 164 160 156 151 148 146 146 150 156 157 156 157 157 163 169 168 165 166 165 170
290 298 306 311 318 323 323 320 318 318 319 321 321 318 317 319 321 321 318 316 315 315 314 309 302 298 296 294 292 289 284 279 274 266 255 248 242 236 232 231 227 221 221 224 224 223 224 225 223 213 207 206 204 204 206 205 200 196 196 196 193 185 175 166 162 158 153 148 143 140 141 143 146 151 151 148 146 145 147 154 156 151 149 153 161
296 304 313 322 326 326 325 323 321 321 323 324 322 319 318 320 322 323 322 321 322 322 320 315 308 304 303 301 299 296 291 285 280 273 262 253 246 239 233 229 224 219 221 226 223 220 219 217 210 202 199 200 202 205 205 202 197 193 192 191 187 181 172 162 156 152 147 142 139 139 143 146 145 148 150 148 147 146 146 148 150 149 143 137 134
301 310 320 326 328 329 327 325 323 323 325 326 324 321 321 322 324 326 328 328 328 327 326 322 316 311 308 307 304 302 298 292 289 285 272 256 246 240 234 229 223 218 220 225 223 214 209 205 199 196 198 200 202 202 198 194 191 189 187 184 179 174 166 158 154 150 143 137 136 137 143 146 145 147 149 146 145 146 144 142 144 146 144 138 130
318 326 331 330 330 330 327 326 327 326 326 327 327 324 323 326 330 333 335 334 333 333 332 329 323 317 314 311 309 308 306 302 301 299 284 263 247 238 233 229 223 217 216 220 217 207 200 197 194 194 194 194 193 190 186 186 187 186 183 178 173 168 162 156 152 148 141 136 134 135 139 143 143 144 144 141 139 140 138 135 135 136 137 134 128
350 344 340 335 331 328 328 331 332 329 327 329 329 327 326 329 335 340 340 339 338 338 335 330 325 322 318 315 314 311 309 311 314 314 300 273 250 236 228 222 215 209 207 206 199 191 186 186 185 182 182 182 180 177 176 177 178 177 175 171 167 163 159 156 152 146 140 137 136 136 136 138 139 139 139 137 135 135 135 133 130 129 130 127 120
13 357 346 338 333 330 332 333 330 329 331 331 332 334 333 331 335 339 339 339 340 340 337 334 332 328 323 321 320 317 312 314 321 326 321 285 230 207 198 194 191 188 182 174 168 166 166 167 166 164 164 166 168 167 166 164 163 162 162 162 160 158 157 156 153 147 142 139 137 135 134 135 134 133 132 130 127 129 132 131 127 127 130 126 118
22 3 349 342 339 335 333 331 328 330 333 332 333 339 340 336 335 335 335 337 340 340 340 342 341 336 331 328 327 322 318 321 327 328 326 300 189 167 162 165 169 167 161 153 149 148 147 146 145 145 146 146 146 148 149 150 152 152 152 152 152 151 151 149 145 142 140 138 135 133 134 135 133 129 127 124 123 126 129 129 127 129 131 126 119
38 8 354 350 346 339 332 332 332 331 331 332 334 339 340 338 338 336 333 337 344 348 349 348 348 347 343 336 334 332 326 324 329 326 315 286 225 174 162 162 165 165 163 157 146 138 135 134 134 135 136 135 134 136 138 139 141 143 145 145 144 144 145 143 139 137 138 138 135 134 135 136 132 128 125 122 122 126 130 129 128 128 128 125 120
57 24 14 7 354 342 335 337 336 332 330 331 333 336 338 339 342 342 339 338 347 355 358 358 2 5 1 351 351 353 342 327 324 321 298 260 241 199 173 169 167 162 159 154 146 137 133 133 135 136 137 136 137 137 138 138 138 137 139 141 141 142 142 141 139 139 139 138 136 135 135 134 130 128 126 123 122 124 126 125 125 125 125 124 119
61 42 32 18 355 339 337 339 337 333 333 333 333 336 339 341 345 350 350 350 352 356 1 6 12 18 16 9 9 14 11 2 349 330 283 222 213 193 173 168 164 158 154 149 140 134 136 137 138 140 139 138 139 140 140 139 139 139 138 139 141 142 141 140 140 140 138 136 134 132 131 132 130 129 127 124 122 121 121 122 123 122 121 119 117
69 51 34 14 352 339 337 340 339 336 336 337 336 339 342 344 347 350 352 357 359 357 0 7 13 20 26 24 23 26 27 31 40 45 75 159 163 157 152 151 149 151 151 146 135 131 136 135 135 139 138 133 137 142 143 142 141 140 139 139 140 142 141 141 141 139 137 135 132 129 129 130 130 128 126 121 120 121 122 123 121 119 117 114 113
76 52 27 4 354 348 342 341 341 341 340 338 337 343 347 348 349 349 349 355 1 2 4 8 11 18 27 31 33 35 37 44 55 66 82 108 126 132 134 136 139 143 144 137 126 124 130 131 132 137 137 135 138 141 141 141 140 139 138 138 137 138 139 140 138 135 133 132 131 131 132 131 128 125 123 121 121 124 123 121 119 117 115 113 113
88 61 31 359 348 352 351 345 342 343 342 339 336 341 348 351 354 353 352 354 358 1 4 7 10 16 24 31 35 39 45 52 58 68 80 90 103 116 121 123 129 133 132 126 122 123 126 129 133 135 134 136 139 138 137 138 138 135 132 132 132 134 135 134 132 129 129 129 128 129 129 127 125 124 123 124 125 123 120 120 119 117 116 115 115
123 94 51 358 339 350 354 348 344 344 344 344 343 340 342 350 359 1 360 359 358 359 1 3 7 15 23 28 32 38 48 57 62 68 77 82 88 98 100 95 96 101 105 110 118 122 124 127 132 134 133 134 136 135 135 135 134 131 130 130 131 131 129 127 127 129 130 128 126 125 124 124 125 126 125 126 126 121 118 119 118 117 118 119 118
156 134 60 354 338 351 353 346 347 349 344 340 340 338 335 342 356 5 8 5 2 3 3 1 4 15 24 27 30 37 46 56 63 68 72 77 82 81 76 74 79 84 88 97 107 114 119 123 128 132 133 132 131 131 132 131 128 127 128 129 129 128 126 127 129 131 129 126 123 122 123 127 130 128 123 121 121 117 116 117 116 116 119 120 120
164 138 58 7 343 347 352 346 342 342 338 333 337 344 343 339 348 4 11 7 3 4 6 4 6 13 19 20 24 33 43 53 62 67 68 73 75 72 66 69 77 81 84 94 104 108 111 117 124 128 130 129 129 128 128 127 126 124 124 124 125 127 128 130 132 130 127 125 124 125 128 131 132 128 120 117 116 114 114 114 113 115 119 121 123
174 167 118 6 339 334 343 348 338 332 332 338 347 351 349 345 350 2 11 11 8 6 7 9 10 10 10 12 18 29 41 49 52 54 56 60 65 66 66 70 75 77 80 89 99 104 106 110 117 122 124 126 127 126 126 125 123 122 123 124 126 129 130 130 129 128 127 126 126 129 129 128 126 124 122 119 118 115 114 115 116 119 123 124 126
192 191 209 277 316 320 328 337 335 331 336 346 352 354 355 356 360 6 12 17 16 11 9 11 12 10 11 14 19 27 38 42 38 37 44 52 56 61 67 72 74 76 80 85 93 98 102 107 111 115 119 123 125 125 125 124 123 125 128 129 129 128 128 128 127 128 129 129 127 127 125 121 120 124 126 125 123 119 118 118 120 123 124 122 122
231 213 237 279 298 303 306 311 319 331 340 346 352 360 3 1 0 6 15 23 26 19 13 11 11 13 17 21 24 29 36 39 34 34 43 50 54 57 63 69 72 73 76 81 88 92 98 105 110 114 117 120 122 124 125 125 125 128 131 131 129 129 130 130 131 132 133 132 129 127 125 122 120 121 122 123 123 122 120 120 120 120 119 118 119
279 254 283 300 298 293 290 291 305 328 338 343 352 2 5 2 1 8 15 22 29 31 24 16 15 19 25 29 31 34 38 41 41 42 46 52 55 57 59 63 68 72 76 81 85 89 93 100 107 112 116 119 122 124 125 126 127 129 131 132 131 131 132 133 134 135 135 134 132 130 127 123 119 120 121 122 123 122 121 119 118 117 118 119 119
297 311 314 299 294 293 292 294 299 308 318 334 354 3 3 2 6 12 17 20 26 34 37 30 24 25 29 34 37 38 40 42 45 48 51 54 58 60 62 64 68 74 81 85 88 92 95 98 102 105 109 114 119 123 125 128 130 131 132 133 133 133 133 135 136 137 137 136 135 132 128 125 124 125 126 124 122 121 121 120 120 120 120 120 120
297 320 308 290 289 299 308 308 305 304 315 333 351 0 358 359 6 12 18 23 24 27 36 40 33 28 29 32 35 37 39 42 47 52 55 56 58 61 64 68 72 78 85 89 91 95 99 102 103 104 106 111 117 122 126 130 133 134 135 134 134 135 137 139 140 141 141 139 136 132 130 130 128 126 124 123 121 122 122 121 122 123 122 122 122
349 327 304 288 288 298 304 301 303 314 322 317 327 346 353 1 13 17 19 25 29 28 31 36 35 29 28 27 28 31 35 39 47 54 58 61 63 65 67 69 74 80 87 91 93 96 99 102 104 107 110 113 118 121 124 128 132 135 135 136 137 140 144 145 145 144 144 143 140 135 134 133 129 124 124 125 125 124 123 122 124 125 125 127 126
303 304 296 285 294 301 293 290 297 313 303 288 302 9 7 11 21 22 20 24 31 33 34 33 29 26 30 32 33 33 34 38 44 52 58 62 66 69 71 74 75 79 85 90 94 97 99 102 104 106 108 111 114 117 119 121 125 128 132 137 141 143 145 145 145 145 147 148 145 140 136 135 132 128 128 129 128 126 124 125 126 127 127 127 125
335 321 308 285 286 292 291 288 293 308 293 285 357 40 34 29 27 26 26 29 31 34 39 39 33 27 28 33 40 44 45 43 43 49 59 67 69 70 73 76 78 80 82 87 92 98 101 105 108 109 109 111 113 116 118 121 125 129 135 140 142 142 144 147 149 152 154 152 147 141 136 135 134 134 132 131 130 127 126 127 128 127 126 124 123
16 11 8 6 328 301 307 313 317 324 352 41 44 43 47 44 32 29 38 40 33 33 39 41 40 38 33 29 34 43 51 56 58 61 69 77 79 80 81 83 87 91 92 92 95 99 103 107 112 116 118 121 123 125 126 130 134 138 142 144 146 150 155 159 159 159 159 155 149 143 140 138 136 136 135 132 129 127 127 128 127 125 124 124 124
25 26 27 29 32 35 36 32 18 21 75 81 67 55 59 55 37 32 37 34 29 34 39 40 42 46 43 38 36 35 39 53 68 75 78 85 94 99 97 93 93 100 109 115 116 115 114 114 116 118 123 128 132 135 139 142 146 148 151 155 161 166 169 168 166 165 164 159 151 145 142 140 137 134 133 131 130 130 130 129 128 127 127 127 128
28 27 28 29 33 39 42 45 52 65 77 83 80 71 66 59 48 41 36 30 31 36 39 38 40 46 51 53 52 46 44 50 56 62 74 88 101 112 117 112 103 99 107 120 128 134 135 133 129 128 129 131 135 140 146 151 155 158 162 168 173 175 173 170 169 169 169 164 154 146 141 140 137 133 131 129 129 130 130 130 130 131 130 129 131
29 27 28 29 30 35 40 42 43 47 49 56 67 67 54 48 50 44 33 33 38 41 41 41 41 43 46 52 55 55 57 60 59 57 66 77 87 106 124 127 120 111 110 115 122 131 140 145 147 149 148 148 151 154 157 160 164 168 170 170 167 167 170 170 167 166 167 164 156 145 140 140 138 133 130 129 128 129 129 129 131 132 131 131 134
29 28 29 29 27 30 35 37 38 38 35 33 37 35 23 25 42 38 22 21 31 34 34 37 41 41 42 44 47 52 59 67 74 77 79 85 92 102 117 127 127 124 123 121 120 122 128 136 144 149 153 156 160 164 168 172 173 173 172 167 161 162 167 167 162 159 160 159 154 146 144 143 139 134 132 131 130 130 131 132 132 133 133 134 135
Height
794 795 796 797 798 798 799 799 800 800 799 799 799 799 799 799 799 798 797 797 797 796 795 795 794 793 792 791 790 790 789 788 787 786 785 783 782 780 779 778 777 776 776 776 776 776 776 777 777 778 780 781 781 784 787 790 792 793 794 795 794 793 794 795 795 794 797 801 805 808 811 813 817 819 821 825 829 832 833 835 839 841 842 843 845
792 793 794 795 796 796 797 797 798 798 797 797 797 797 797 796 796 795 795 794 794 793 792 792 791 790 789 788 787 786 785 785 784 783 782 780 779 778 776 775 774 773 772 771 771 772 772 772 772 774 776 776 776 779 781 784 786 788 790 792 792 791 791 792 793 793 796 801 804 806 809 811 814 817 819 822 826 830 832 835 839 840 841 842 844
790 791 792 793 794 795 795 795 796 796 795 795 795 794 794 793 793 792 792 791 790 790 789 788 788 787 786 785 784 783 782 781 780 779 778 777 775 774 773 772 771 770 769 768 767 768 767 767 767 768 771 772 773 774 776 778 781 783 786 788 789 789 790 791 790 790 794 799 802 804 807 809 812 815 818 821 824 827 831 835 838 839 840 842 843
788 789 790 791 792 793 793 793 794 793 793 793 792 792 791 790 790 789 788 788 787 786 785 785 784 784 783 781 780 779 778 777 776 775 774 773 772 771 770 769 768 767 766 765 764 763 763 762 762 764 766 767 768 770 771 772 775 778 781 784 785 785 787 788 788 788 791 795 799 802 804 807 810 812 816 820 824 827 830 834 837 839 840 841 841
786 787 788 789 790 791 791 791 791 791 791 790 789 789 788 787 787 786 785 784 783 782 782 781 780 779 778 777 776 775 773 772 771 770 770 769 768 767 766 765 764 763 762 761 760 759 759 758 758 759 761 761 762 764 766 766 769 772 775 777 780 781 782 784 786 786 788 792 796 799 802 804 807 811 813 817 822 827 830 833 836 837 838 839 840
785 786 787 787 788 789 789 789 789 788 788 788 787 786 785 784 783 782 781 780 779 778 777 777 776 774 773 772 771 770 769 768 766 765 765 764 764 763 762 761 760 759 758 757 756 755 754 754 754 755 755 755 755 757 761 762 763 765 767 770 775 776 776 779 782 783 785 789 792 795 798 801 804 809 812 814 818 823 827 832 835 836 837 838 839
783 784 785 785 786 786 786 786 786 786 785 785 784 783 782 781 780 779 777 776 774 773 772 772 771 770 768 767 766 765 763 762 761 760 760 759 759 758 757 757 756 755 754 752 751 751 750 749 749 750 749 749 749 751 755 757 758 759 760 764 770 772 772 774 777 778 781 786 789 790 794 798 801 805 810 813 816 819 823 827 831 834 836 837 838
781 782 782 783 783 783 784 784 783 783 783 782 782 781 780 778 777 775 774 772 770 769 768 767 766 765 763 761 760 759 758 756 755 754 754 754 753 753 753 752 751 750 749 747 747 746 745 745 744 744 744 743 744 746 748 752 754 754 756 760 765 768 768 770 772 773 776 781 784 786 790 795 799 803 807 811 814 817 819 822 826 829 833 835 837
779 780 780 780 781 781 781 781 781 781 781 780 779 778 777 775 773 771 770 768 766 765 763 762 761 759 758 756 755 754 752 750 749 749 748 748 748 748 748 747 747 746 744 742 741 740 740 740 739 738 738 739 740 741 743 747 750 751 752 755 760 763 764 766 769 770 773 777 779 782 786 791 795 799 803 805 807 811 815 819 822 826 829 833 836
776 777 778 778 778 778 778 778 778 778 778 778 777 775 773 772 769 767 766 764 762 761 759 757 756 754 752 751 750 748 746 744 742 742 743 743 744 744 743 742 742 741 740 738 736 735 734 734 734 734 734 735 736 737 739 742 745 747 748 751 755 758 760 762 764 767 769 772 774 777 782 786 790 793 796 799 802 806 810 813 817 822 826 830 834
774 775 776 776 776 776 775 775 775 776 776 775 774 772 770 768 766 764 762 760 758 756 754 753 751 749 747 745 744 742 740 737 737 737 737 738 739 740 739 738 737 736 735 733 731 729 729 729 729 729 730 730 732 733 734 737 740 742 745 747 749 753 755 756 759 761 764 767 770 773 776 781 785 789 793 796 800 802 805 808 812 816 820 824 828
772 773 773 773 773 773 773 773 773 774 773 772 771 769 767 765 762 760 758 756 754 752 750 748 746 744 742 740 738 736 734 732 732 732 732 733 734 735 735 734 733 731 730 728 726 725 724 724 724 724 724 725 727 729 730 733 735 737 741 743 745 748 750 752 754 756 759 763 765 768 772 776 781 785 788 791 795 798 802 805 808 811 814 818 821
770 770 770 771 771 770 770 771 771 771 770 769 768 766 764 762 760 757 755 752 750 748 745 743 740 739 736 734 732 730 727 726 726 726 726 727 729 730 730 729 728 726 725 723 721 720 719 719 718 718 719 720 722 724 726 728 731 734 736 738 740 743 746 750 753 754 756 758 760 763 767 770 775 779 781 785 789 793 797 800 803 807 811 814 817
767 768 768 768 768 768 768 769 769 768 768 767 765 763 761 759 757 754 751 749 746 743 740 738 735 733 731 728 726 724 721 720 720 720 720 721 723 724 724 724 723 721 720 718 717 715 714 713 713 712 713 715 717 719 721 723 726 730 733 734 736 738 742 746 750 752 754 755 756 759 762 765 768 772 776 781 784 787 790 794 798 803 807 811 813
765 766 766 766 766 766 766 766 767 766 765 764 762 760 758 756 753 751 748 745 742 738 735 732 729 727 725 723 720 717 715 714 714 714 714 715 716 717 717 717 717 715 714 713 712 710 709 709 708 707 708 709 711 713 715 719 722 725 729 731 733 736 740 743 745 749 752 754 755 756 759 762 765 768 773 778 781 784 786 790 795 800 805 809 813
763 763 764 764 764 764 764 764 764 764 763 761 759 757 755 753 750 747 744 741 738 734 731 727 724 721 719 717 714 710 708 707 707 707 707 708 709 710 710 710 710 708 708 707 706 706 705 704 703 703 703 704 706 708 711 715 718 721 725 729 730 733 736 739 741 745 748 750 753 755 757 761 764 767 771 775 778 782 787 791 796 800 804 809 814
761 762 762 762 762 762 762 762 762 761 760 758 756 754 752 750 747 744 740 737 733 729 726 722 719 716 713 711 708 704 701 700 700 699 699 701 702 702 702 703 702 702 701 701 701 700 699 699 698 698 699 700 701 704 707 711 715 717 721 726 729 731 733 736 738 742 745 748 752 754 757 760 763 766 769 772 775 778 784 790 795 798 802 807 812
759 760 760 761 760 760 760 760 759 758 757 755 753 751 749 746 743 740 736 732 728 725 721 717 714 711 708 705 702 699 695 693 693 692 691 692 693 694 695 696 695 695 694 695 695 694 693 693 694 694 694 695 697 700 702 707 711 713 716 721 726 729 731 734 737 740 743 747 750 753 756 759 762 765 769 772 774 777 780 784 789 794 800 804 808
758 758 759 759 758 758 757 757 756 755 754 752 751 749 746 743 739 736 732 728 724 720 717 713 709 706 703 699 696 693 688 685 684 683 683 684 686 687 689 689 688 688 688 688 689 689 688 688 689 690 691 692 693 695 698 703 707 709 712 717 722 726 728 732 734 736 739 744 748 751 755 759 762 766 769 772 775 778 780 782 786 791 796 800 805
757 757 757 757 756 755 755 754 754 753 752 750 748 746 744 740 736 732 728 724 721 717 713 710 705 700 696 693 690 686 683 679 676 675 675 677 679 680 682 682 681 681 682 682 682 683 683 683 683 685 687 689 690 692 695 699 702 704 708 713 717 722 726 730 732 733 736 741 746 749 753 758 762 766 770 773 776 778 781 783 787 790 793 797 801
756 756 755 755 754 753 752 752 752 751 750 748 746 744 741 738 733 729 726 722 718 714 709 705 700 695 691 688 684 680 677 673 670 668 668 669 671 673 674 674 675 676 677 677 677 677 677 678 678 680 683 685 687 690 693 696 699 701 704 709 713 718 722 726 730 732 735 740 744 747 752 757 762 767 771 774 776 778 781 784 788 791 793 795 798
754 754 754 753 752 751 751 751 750 749 747 745 744 742 739 736 732 728 724 719 715 710 705 700 696 690 686 682 679 675 672 668 665 663 662 662 663 665 666 667 669 671 671 671 671 671 672 673 674 676 678 681 685 688 691 694 697 700 703 707 712 716 719 723 728 731 733 737 742 746 752 757 763 769 772 773 776 778 780 783 786 788 791 793 796
753 753 752 751 751 750 749 749 748 747 745 744 742 741 737 734 730 726 722 717 712 707 702 697 692 686 681 677 674 670 667 663 660 657 656 655 656 657 658 660 663 665 666 665 666 667 668 670 671 673 676 679 683 686 689 693 696 698 702 706 710 714 718 722 726 729 731 736 741 746 751 756 761 767 770 772 773 775 778 781 784 786 789 792 795
752 752 751 750 749 748 748 747 746 745 743 742 741 739 736 732 729 725 721 716 710 705 700 694 689 683 678 673 669 665 662 659 655 652 650 648 648 649 651 654 656 659 661 662 662 664 665 666 668 671 674 677 681 684 687 691 694 697 701 705 708 712 716 719 723 726 729 735 741 746 751 755 759 764 768 770 770 772 776 781 784 786 789 792 795
751 750 749 748 747 747 746 745 744 743 742 741 739 737 734 731 728 724 720 715 710 704 699 693 688 682 676 671 666 662 659 655 651 647 644 642 642 643 645 647 651 654 657 658 659 660 662 664 666 669 672 676 679 683 686 689 692 696 700 703 706 709 713 717 721 723 727 733 740 746 751 755 757 761 766 768 768 771 776 780 784 787 789 793 796
749 749 748 747 746 746 745 744 743 741 740 739 738 736 733 730 727 724 719 715 710 704 699 694 688 682 676 670 665 661 657 654 649 645 642 639 637 637 639 643 647 651 654 655 656 658 660 663 664 667 671 675 678 682 685 689 693 696 699 702 704 707 711 715 718 721 725 732 739 745 750 754 758 761 764 767 769 773 776 780 783 787 791 794 797
748 747 747 746 745 745 744 743 742 739 738 737 736 734 731 729 726 723 719 714 709 704 698 692 686 680 675 670 665 661 656 652 649 645 642 639 636 635 637 640 644 647 650 652 654 657 660 662 663 666 670 675 678 681 685 689 693 697 700 703 705 708 711 714 716 719 723 730 738 744 750 755 759 762 764 767 771 774 777 780 784 788 792 794 797
747 747 746 745 745 744 743 742 740 738 737 736 735 733 730 727 725 722 718 714 709 704 698 692 686 681 675 670 665 660 655 652 649 645 643 642 639 637 637 638 641 644 647 650 654 657 660 662 664 667 671 676 680 684 687 690 694 697 700 703 706 710 714 716 718 720 723 729 737 744 750 755 759 761 764 767 770 774 778 782 784 788 791 793 795
746 746 745 745 744 743 742 740 739 737 736 735 733 732 729 726 723 720 717 714 710 705 700 694 689 683 677 672 667 661 656 652 649 646 644 643 642 640 637 637 639 641 644 647 652 657 661 663 665 669 673 676 681 685 688 692 696 700 703 704 707 711 715 716 718 722 726 730 735 742 749 754 758 760 764 767 770 775 779 782 784 787 789 792 794
745 745 745 744 744 743 741 740 738 736 735 733 732 730 728 726 723 720 716 713 710 706 701 697 691 684 678 674 670 665 659 653 650 647 644 643 643 642 639 638 639 641 643 646 650 655 660 663 666 670 673 676 680 684 687 691 696 701 704 706 709 713 716 717 720 723 727 732 735 740 747 754 758 760 763 766 770 775 779 781 784 787 789 792 794
744 744 744 744 744 743 741 739 737 736 734 732 731 729 727 724 721 719 716 712 709 705 702 697 691 686 681 676 671 666 660 654 651 648 645 643 644 644 643 641 641 643 644 646 650 655 659 662 667 670 673 676 679 682 686 690 695 700 704 709 713 716 716 719 722 725 728 732 736 741 748 756 758 759 762 766 770 774 778 782 785 787 790 792 794
744 744 744 744 743 742 741 738 737 735 733 731 730 728 726 723 720 718 715 712 709 705 702 697 693 688 683 679 673 667 662 657 653 650 648 646 646 646 647 647 647 648 648 647 651 655 658 661 666 670 673 676 679 682 685 689 694 699 703 708 714 717 718 721 724 727 729 733 736 742 751 757 758 759 763 766 770 774 779 782 785 788 790 792 795
744 744 744 743 742 742 740 738 737 735 733 731 729 728 726 724 721 718 715 711 708 705 702 699 695 690 685 680 675 671 666 661 657 654 653 652 650 650 651 652 653 654 653 651 653 657 660 662 666 670 673 676 680 684 688 691 696 701 704 707 711 717 722 725 726 729 733 735 737 744 752 755 756 759 764 768 772 776 779 782 785 787 789 792 795
745 745 744 743 742 741 740 739 737 735 733 731 729 727 726 725 723 720 717 712 708 705 702 699 696 692 687 682 678 674 670 666 663 661 659 659 657 656 655 656 656 657 657 656 657 659 662 665 668 671 674 678 682 686 690 694 698 701 704 708 713 719 723 725 727 730 735 738 741 747 752 754 756 761 767 771 774 777 779 782 785 787 790 793 796
745 745 744 743 742 741 740 739 737 735 734 732 729 728 726 725 724 722 720 716 712 708 705 701 698 694 690 685 681 678 674 671 668 666 664 663 663 661 660 660 661 661 662 662 663 664 665 667 669 672 676 680 684 687 691 696 699 701 704 710 716 720 722 725 729 734 738 741 745 749 752 756 761 766 769 772 775 777 779 782 785 788 791 794 797
744 744 744 743 742 741 740 739 737 736 734 732 730 728 727 725 724 723 722 719 715 712 708 704 700 696 692 689 685 682 679 675 673 671 669 668 667 666 665 665 666 666 667 668 669 670 670 672 674 676 680 683 687 689 692 696 699 702 707 712 716 718 722 728 733 738 741 743 747 751 756 761 766 769 771 773 775 777 779 783 786 789 792 796 799
744 743 743 743 741 740 740 739 738 736 734 732 731 729 727 726 724 723 723 721 718 715 711 707 702 698 695 692 689 686 683 680 677 674 673 672 671 671 671 671 671 672 673 674 674 675 676 677 679 681 683 686 689 691 693 696 700 704 709 714 717 722 728 733 737 739 742 745 750 756 761 766 769 770 771 773 775 778 781 784 787 790 794 797 800
743 743 743 743 742 740 739 739 737 736 734 732 731 729 728 726 725 723 723 722 720 718 714 710 707 703 700 696 693 690 686 683 680 678 677 677 676 676 677 676 676 677 679 679 679 679 680 682 684 686 688 689 691 693 695 697 700 704 710 718 724 728 732 736 738 741 744 750 756 761 765 767 770 771 773 774 776 779 782 786 789 792 796 799 802
742 743 743 742 742 740 739 738 737 736 734 733 731 730 729 727 725 724 723 723 722 720 718 714 711 709 705 701 697 693 690 688 686 685 684 683 683 683 682 682 682 683 684 684 684 684 685 686 688 690 693 694 695 697 698 700 703 709 716 723 727 730 733 737 740 744 749 755 760 764 766 769 771 773 774 776 778 781 784 788 792 795 797 800 803
742 743 743 742 742 741 739 738 737 736 734 733 732 730 729 728 726 725 724 724 724 723 721 718 716 713 710 706 702 699 696 695 694 692 690 689 689 688 687 687 687 688 689 689 689 689 690 691 693 695 698 699 700 702 704 706 711 716 722 725 728 731 734 738 743 748 753 757 761 764 767 770 773 775 777 779 781 784 787 790 794 796 798 801 803
742 742 742 742 742 740 739 738 737 736 735 734 732 731 730 729 728 726 725 724 724 724 723 722 720 717 714 711 708 705 703 702 701 699 696 695 694 693 692 692 692 693 693 694 695 695 696 698 700 701 702 704 705 706 709 712 715 719 723 727 730 733 737 742 746 751 755 759 762 765 769 773 776 778 779 782 784 787 790 792 794 797 799 802 803
743 742 742 742 741 740 738 737 736 736 735 734 733 732 731 730 729 727 726 725 725 725 725 724 723 721 718 715 713 711 709 708 706 705 702 701 700 699 698 698 698 698 699 700 701 701 702 703 705 706 707 709 710 711 713 716 719 721 726 729 732 736 741 746 750 754 757 760 764 768 772 775 778 780 782 784 787 789 791 793 796 798 800 802 804
742 742 742 742 741 740 739 737 736 736 735 735 734 733 732 731 730 729 727 727 726 726 726 726 725 724 722 720 717 715 714 712 711 709 708 707 706 704 704 704 704 705 705 705 706 707 708 709 710 712 712 714 716 717 719 722 724 727 730 733 736 740 745 749 753 756 759 762 766 770 774 777 780 782 784 786 788 790 792 794 797 799 801 803 805
742 742 742 742 741 740 739 738 737 736 736 735 735 734 733 732 731 730 729 728 727 727 727 727 727 726 725 724 722 720 718 717 715 714 712 712 711 710 710 710 710 710 710 710 712 713 714 715 716 718 719 721 723 725 727 730 731 733 735 738 741 745 749 752 755 758 761 764 768 773 776 779 781 784 786 788 790 791 793 795 798 800 802 804 805
742 742 742 741 740 740 740 738 737 737 736 736 735 734 734 733 732 731 730 729 729 728 728 728 728 728 727 727 726 725 723 721 720 718 717 716 716 716 716 716 716 716 715 716 717 718 719 721 722 724 725 727 730 732 734 736 738 739 741 744 746 749 752 755 757 760 763 767 770 774 778 781 783 785 787 789 791 793 794 797 799 801 803 804 806
742 741 741 741 740 740 740 739 738 737 737 736 735 735 734 734 733 733 732 731 730 730 729 729 729 728 728 728 728 727 726 725 724 723 722 721 721 721 721 721 721 720 720 721 722 723 725 726 727 729 731 733 735 737 739 741 742 744 747 749 751 753 755 757 760 762 766 769 772 776 779 782 784 786 788 790 792 793 796 798 800 802 804 805 806
742 741 741 740 740 740 740 739 738 738 737 737 736 736 736 735 734 734 733 732 732 731 730 730 730 729 729 729 728 728 728 728 727 726 726 725 725 725 726 726 726 726 726 727 729 730 731 732 733 734 736 738 740 742 743 745 747 749 750 752 754 755 757 759 762 765 768 771 774 777 780 782 785 787 789 791 793 794 797 799 801 803 804 806 807
743 742 742 741 741 740 740 740 739 739 738 738 738 737 737 736 736 735 734 733 732 732 731 731 731 730 730 730 729 729 729 729 729 729 728 728 728 729 729 730 730 731 732 733 734 735 736 737 738 739 741 742 744 745 747 749 750 752 753 755 756 757 759 762 764 767 770 773 776 778 780 783 785 788 790 791 793 795 798 800 801 803 805 807 808
746 744 743 742 742 741 741 741 740 739 739 739 739 738 738 737 737 736 735 734 733 733 732 732 732 732 732 732 731 731 730 730 730 730 730 730 731 732 732 733 734 735 736 737 738 739 740 741 742 743 745 746 747 748 750 751 752 754 755 756 758 759 762 764 766 769 771 774 776 779 782 784 786 788 790 792 794 796 798 800 802 804 806 807 809
749 747 746 745 744 743 743 742 742 741 741 741 740 740 739 739 738 737 737 736 735 734 734 733 733 733 733 733 733 733 732 732 732 732 732 732 733 733 734 735 736 737 738 739 740 740 741 743 744 745 746 748 749 750 752 753 754 756 757 758 759 761 764 766 768 770 772 775 778 781 783 785 787 789 791 793 795 797 799 801 803 804 806 808 809
752 750 749 748 746 745 745 744 744 743 743 742 742 742 741 740 739 739 739 738 737 736 736 735 735 734 734 734 734 734 734 734 734 734 734 734 734 735 735 736 737 738 739 740 741 742 743 743 744 746 747 748 750 751 753 754 755 757 758 760 761 763 765 767 770 772 774 777 779 782 784 785 787 790 792 794 796 798 800 801 803 805 807 808 810